Wetterdaten: Donnerstag, 06.08.2015
Datum Zeit Auen-Temp. Temp gefhlt Luftfeuchte Luftdruck Regen Wind Richtung Richtung Taupunkt Windben
06.08.2015 00:00 18,1 C 17,9 C 78 % 1012,8 hPa 0,0 mm 0,0 km/h (0 Bft) SW 225 14,2 C 0,0 km/h (0 Bft)
06.08.2015 00:05 18,1 C 17,9 C 78 % 1012,8 hPa 0,0 mm 0,0 km/h (0 Bft) W-SW 247 14,2 C 0,0 km/h (0 Bft)
06.08.2015 00:10 18,1 C 18,0 C 78 % 1012,9 hPa 0,0 mm 0,0 km/h (0 Bft) S 180 14,2 C 0,0 km/h (0 Bft)
06.08.2015 00:15 18,2 C 18,1 C 78 % 1012,9 hPa 0,0 mm 0,0 km/h (0 Bft) S 180 14,3 C 0,0 km/h (0 Bft)
06.08.2015 00:20 18,3 C 18,1 C 78 % 1012,9 hPa 0,0 mm 0,0 km/h (0 Bft) W 270 14,4 C 0,0 km/h (0 Bft)
06.08.2015 00:25 18,3 C 18,2 C 78 % 1012,9 hPa 0,0 mm 0,0 km/h (0 Bft) W-NW 292 14,4 C 0,0 km/h (0 Bft)
06.08.2015 00:30 18,4 C 18,3 C 78 % 1012,8 hPa 0,0 mm 0,0 km/h (0 Bft) W-NW 292 14,5 C 0,0 km/h (0 Bft)
06.08.2015 00:35 18,4 C 18,3 C 78 % 1012,8 hPa 0,0 mm 0,0 km/h (0 Bft) W-NW 292 14,5 C 0,0 km/h (0 Bft)
06.08.2015 00:40 18,3 C 18,2 C 78 % 1012,8 hPa 0,0 mm 0,0 km/h (0 Bft) W-NW 292 14,4 C 0,0 km/h (0 Bft)
06.08.2015 00:45 18,3 C 18,2 C 78 % 1012,8 hPa 0,0 mm 0,0 km/h (0 Bft) W-NW 292 14,4 C 0,0 km/h (0 Bft)
06.08.2015 00:50 18,3 C 18,2 C 78 % 1013,0 hPa 0,0 mm 0,0 km/h (0 Bft) NW 315 14,4 C 3,4 km/h (1 Bft)
06.08.2015 00:55 18,1 C 18,1 C 78 % 1013,0 hPa 0,0 mm 0,0 km/h (0 Bft) N-NO 22 14,2 C 0,0 km/h (0 Bft)
06.08.2015 01:00 17,8 C 17,8 C 78 % 1013,0 hPa 0,0 mm 0,0 km/h (0 Bft) NO 45 13,9 C 0,0 km/h (0 Bft)
06.08.2015 01:05 17,7 C 17,7 C 78 % 1013,0 hPa 0,0 mm 0,0 km/h (0 Bft) O-NO 67 13,8 C 0,0 km/h (0 Bft)
06.08.2015 01:10 17,8 C 17,7 C 79 % 1012,9 hPa 0,0 mm 0,3 km/h (0 Bft) SW 225 14,1 C 9,6 km/h (2 Bft)
06.08.2015 01:15 18,7 C 18,4 C 79 % 1012,9 hPa 0,0 mm 3,6 km/h (1 Bft) SW 225 15,0 C 10,6 km/h (2 Bft)
06.08.2015 01:20 18,8 C 18,7 C 78 % 1012,9 hPa 0,0 mm 5,7 km/h (1 Bft) S 180 14,9 C 12,2 km/h (2 Bft)
06.08.2015 01:25 18,6 C 18,7 C 78 % 1012,9 hPa 0,0 mm 4,1 km/h (1 Bft) S 180 14,7 C 0,0 km/h (0 Bft)
06.08.2015 01:30 18,5 C 18,6 C 78 % 1012,9 hPa 0,0 mm 1,0 km/h (0 Bft) S-SO 157 14,6 C 0,0 km/h (0 Bft)
06.08.2015 01:35 18,5 C 18,5 C 78 % 1012,9 hPa 0,0 mm 0,3 km/h (0 Bft) S 180 14,6 C 0,0 km/h (0 Bft)
06.08.2015 01:40 18,5 C 18,5 C 78 % 1012,9 hPa 0,0 mm 0,0 km/h (0 Bft) SO 135 14,6 C 0,0 km/h (0 Bft)
06.08.2015 01:45 18,3 C 18,3 C 78 % 1012,9 hPa 0,0 mm 0,0 km/h (0 Bft) SO 135 14,4 C 0,0 km/h (0 Bft)
06.08.2015 01:50 18,1 C 18,1 C 78 % 1012,8 hPa 0,0 mm 0,3 km/h (0 Bft) NW 315 14,2 C 3,1 km/h (1 Bft)
06.08.2015 01:55 17,9 C 17,9 C 78 % 1012,8 hPa 0,0 mm 0,3 km/h (0 Bft) O-SO 112 14,0 C 0,0 km/h (0 Bft)
06.08.2015 02:00 18,3 C 18,1 C 79 % 1012,8 hPa 0,0 mm 0,3 km/h (0 Bft) O 90 14,6 C 0,0 km/h (0 Bft)
06.08.2015 02:05 18,0 C 17,9 C 78 % 1012,8 hPa 0,0 mm 0,0 km/h (0 Bft) N-NW 337 14,1 C 0,0 km/h (0 Bft)
06.08.2015 02:10 17,6 C 17,5 C 78 % 1012,7 hPa 0,0 mm 0,3 km/h (0 Bft) NO 45 13,7 C 0,0 km/h (0 Bft)
06.08.2015 02:15 17,5 C 17,4 C 79 % 1012,7 hPa 0,0 mm 0,3 km/h (0 Bft) O-NO 67 13,8 C 0,0 km/h (0 Bft)
06.08.2015 02:20 17,2 C 17,1 C 79 % 1012,7 hPa 0,0 mm 0,0 km/h (0 Bft) O-NO 67 13,5 C 0,0 km/h (0 Bft)
06.08.2015 02:25 17,1 C 16,9 C 79 % 1012,7 hPa 0,0 mm 0,0 km/h (0 Bft) O-NO 67 13,4 C 0,0 km/h (0 Bft)
06.08.2015 02:30 16,8 C 16,7 C 80 % 1012,6 hPa 0,0 mm 0,0 km/h (0 Bft) SW 225 13,3 C 0,0 km/h (0 Bft)
06.08.2015 02:35 17,1 C 16,9 C 80 % 1012,6 hPa 0,0 mm 0,5 km/h (0 Bft) S-SO 157 13,6 C 2,6 km/h (1 Bft)
06.08.2015 02:40 17,1 C 16,9 C 81 % 1012,6 hPa 0,0 mm 0,5 km/h (0 Bft) NO 45 13,8 C 0,0 km/h (0 Bft)
06.08.2015 02:45 16,8 C 16,7 C 80 % 1012,6 hPa 0,0 mm 0,5 km/h (0 Bft) W 270 13,3 C 2,6 km/h (1 Bft)
06.08.2015 02:50 16,6 C 16,5 C 81 % 1012,8 hPa 0,0 mm 0,5 km/h (0 Bft) W-NW 292 13,3 C 3,4 km/h (1 Bft)
06.08.2015 02:55 16,5 C 16,4 C 81 % 1012,8 hPa 0,0 mm 0,3 km/h (0 Bft) W 270 13,2 C 0,0 km/h (0 Bft)
06.08.2015 03:00 16,7 C 16,5 C 82 % 1012,8 hPa 0,0 mm 0,3 km/h (0 Bft) W-NW 292 13,6 C 0,0 km/h (0 Bft)
06.08.2015 03:05 16,5 C 16,3 C 82 % 1012,8 hPa 0,0 mm 0,0 km/h (0 Bft) SW 225 13,4 C 0,0 km/h (0 Bft)
06.08.2015 03:10 16,6 C 16,4 C 82 % 1012,8 hPa 0,0 mm 1,3 km/h (1 Bft) S 180 13,5 C 10,6 km/h (2 Bft)
06.08.2015 03:15 17,7 C 17,4 C 83 % 1012,8 hPa 0,0 mm 3,9 km/h (1 Bft) SW 225 14,8 C 6,5 km/h (2 Bft)
06.08.2015 03:20 18,3 C 18,1 C 82 % 1012,8 hPa 0,0 mm 7,5 km/h (2 Bft) S 180 15,2 C 13,2 km/h (3 Bft)
06.08.2015 03:25 18,3 C 18,2 C 81 % 1012,8 hPa 0,0 mm 5,2 km/h (1 Bft) S-SO 157 15,0 C 2,8 km/h (1 Bft)
06.08.2015 03:30 17,8 C 17,9 C 80 % 1013,0 hPa 0,0 mm 1,6 km/h (1 Bft) S 180 14,3 C 0,0 km/h (0 Bft)
06.08.2015 03:35 16,8 C 17,5 C 79 % 1013,0 hPa 0,0 mm 0,3 km/h (0 Bft) S 180 13,1 C 0,0 km/h (0 Bft)
06.08.2015 03:40 16,4 C 17,0 C 80 % 1013,0 hPa 0,0 mm 0,0 km/h (0 Bft) SO 135 12,9 C 0,0 km/h (0 Bft)
06.08.2015 03:45 16,6 C 16,8 C 81 % 1013,0 hPa 0,0 mm 0,0 km/h (0 Bft) SW 225 13,3 C 0,0 km/h (0 Bft)
06.08.2015 03:50 16,4 C 16,5 C 80 % 1012,9 hPa 0,0 mm 0,3 km/h (0 Bft) S-SW 202 12,9 C 6,5 km/h (2 Bft)
06.08.2015 03:55 16,8 C 16,7 C 82 % 1012,9 hPa 0,0 mm 2,1 km/h (1 Bft) S-SO 157 13,7 C 0,0 km/h (0 Bft)
06.08.2015 04:00 17,2 C 17,1 C 83 % 1012,9 hPa 0,0 mm 3,1 km/h (1 Bft) S-SO 157 14,3 C 0,0 km/h (0 Bft)
06.08.2015 04:05 17,2 C 17,1 C 82 % 1012,9 hPa 0,0 mm 1,3 km/h (1 Bft) SO 135 14,1 C 0,0 km/h (0 Bft)
06.08.2015 04:10 17,3 C 17,2 C 83 % 1012,9 hPa 0,0 mm 0,3 km/h (0 Bft) SO 135 14,4 C 0,0 km/h (0 Bft)
06.08.2015 04:15 17,4 C 17,3 C 82 % 1012,9 hPa 0,0 mm 0,3 km/h (0 Bft) SO 135 14,3 C 0,0 km/h (0 Bft)
06.08.2015 04:20 17,5 C 17,3 C 82 % 1012,9 hPa 0,0 mm 0,3 km/h (0 Bft) SW 225 14,4 C 0,0 km/h (0 Bft)
06.08.2015 04:25 17,3 C 17,2 C 82 % 1012,9 hPa 0,0 mm 0,0 km/h (0 Bft) S-SO 157 14,2 C 0,0 km/h (0 Bft)
06.08.2015 04:30 17,3 C 17,2 C 82 % 1012,8 hPa 0,0 mm 0,3 km/h (0 Bft) S-SO 157 14,2 C 0,0 km/h (0 Bft)
06.08.2015 04:35 16,8 C 16,8 C 81 % 1012,8 hPa 0,0 mm 0,3 km/h (0 Bft) W-NW 292 13,5 C 0,0 km/h (0 Bft)
06.08.2015 04:40 16,7 C 16,6 C 82 % 1012,8 hPa 0,0 mm 0,0 km/h (0 Bft) O-NO 67 13,6 C 0,0 km/h (0 Bft)
06.08.2015 04:45 16,5 C 16,4 C 82 % 1012,8 hPa 0,0 mm 0,0 km/h (0 Bft) NW 315 13,4 C 0,0 km/h (0 Bft)
06.08.2015 04:50 16,4 C 16,3 C 82 % 1012,6 hPa 0,0 mm 0,0 km/h (0 Bft) NW 315 13,3 C 0,0 km/h (0 Bft)
06.08.2015 04:55 16,2 C 16,1 C 82 % 1012,6 hPa 0,0 mm 0,0 km/h (0 Bft) O-NO 67 13,1 C 0,0 km/h (0 Bft)
06.08.2015 05:00 16,1 C 16,0 C 82 % 1012,6 hPa 0,0 mm 0,0 km/h (0 Bft) N-NO 22 13,0 C 0,0 km/h (0 Bft)
06.08.2015 05:05 16,4 C 16,1 C 83 % 1012,6 hPa 0,0 mm 0,0 km/h (0 Bft) O-SO 112 13,5 C 0,0 km/h (0 Bft)
06.08.2015 05:10 16,3 C 16,1 C 83 % 1012,9 hPa 0,0 mm 0,0 km/h (0 Bft) W-NW 292 13,4 C 0,0 km/h (0 Bft)
06.08.2015 05:15 16,2 C 16,0 C 83 % 1012,9 hPa 0,0 mm 0,0 km/h (0 Bft) W-NW 292 13,3 C 0,0 km/h (0 Bft)
06.08.2015 05:20 16,1 C 15,9 C 83 % 1012,9 hPa 0,0 mm 0,0 km/h (0 Bft) W 270 13,2 C 0,0 km/h (0 Bft)
06.08.2015 05:25 16,1 C 15,9 C 83 % 1012,9 hPa 0,0 mm 0,0 km/h (0 Bft) NW 315 13,2 C 0,0 km/h (0 Bft)
06.08.2015 05:30 16,2 C 16,0 C 84 % 1012,8 hPa 0,0 mm 0,0 km/h (0 Bft) O-NO 67 13,5 C 0,0 km/h (0 Bft)
06.08.2015 05:35 16,0 C 15,9 C 84 % 1012,8 hPa 0,0 mm 0,0 km/h (0 Bft) O-NO 67 13,3 C 0,0 km/h (0 Bft)
06.08.2015 05:40 15,9 C 15,8 C 85 % 1012,8 hPa 0,0 mm 0,0 km/h (0 Bft) O-NO 67 13,4 C 0,0 km/h (0 Bft)
06.08.2015 05:45 15,7 C 15,6 C 84 % 1012,8 hPa 0,0 mm 0,0 km/h (0 Bft) O-NO 67 13,0 C 0,0 km/h (0 Bft)
06.08.2015 05:50 15,5 C 15,4 C 85 % 1012,8 hPa 0,0 mm 0,0 km/h (0 Bft) O-NO 67 13,0 C 0,0 km/h (0 Bft)
06.08.2015 05:55 15,7 C 15,5 C 85 % 1012,8 hPa 0,0 mm 0,0 km/h (0 Bft) O-NO 67 13,2 C 0,0 km/h (0 Bft)
06.08.2015 06:00 15,7 C 15,6 C 85 % 1012,8 hPa 0,0 mm 0,0 km/h (0 Bft) O-NO 67 13,2 C 0,0 km/h (0 Bft)
06.08.2015 06:05 15,9 C 15,7 C 86 % 1012,8 hPa 0,0 mm 0,0 km/h (0 Bft) O-NO 67 13,6 C 0,0 km/h (0 Bft)
06.08.2015 06:10 15,8 C 15,7 C 86 % 1012,9 hPa 0,0 mm 0,0 km/h (0 Bft) N-NW 337 13,5 C 0,0 km/h (0 Bft)
06.08.2015 06:15 16,0 C 15,9 C 85 % 1012,9 hPa 0,0 mm 0,0 km/h (0 Bft) NO 45 13,5 C 0,0 km/h (0 Bft)
06.08.2015 06:20 16,2 C 16,0 C 85 % 1012,9 hPa 0,0 mm 0,0 km/h (0 Bft) NO 45 13,7 C 0,0 km/h (0 Bft)
06.08.2015 06:25 16,2 C 16,1 C 85 % 1012,9 hPa 0,0 mm 0,0 km/h (0 Bft) N-NO 22 13,7 C 0,0 km/h (0 Bft)
06.08.2015 06:30 16,1 C 16,0 C 85 % 1012,9 hPa 0,0 mm 0,0 km/h (0 Bft) N-NO 22 13,6 C 0,0 km/h (0 Bft)
06.08.2015 06:35 16,1 C 16,1 C 85 % 1012,9 hPa 0,0 mm 0,0 km/h (0 Bft) W-NW 292 13,6 C 0,0 km/h (0 Bft)
06.08.2015 06:40 16,3 C 16,9 C 85 % 1012,9 hPa 0,0 mm 0,0 km/h (0 Bft) N-NO 22 13,8 C 0,0 km/h (0 Bft)
06.08.2015 06:45 16,2 C 18,3 C 85 % 1012,9 hPa 0,0 mm 0,0 km/h (0 Bft) O-NO 67 13,7 C 0,0 km/h (0 Bft)
06.08.2015 06:50 16,5 C 20,0 C 85 % 1013,0 hPa 0,0 mm 0,0 km/h (0 Bft) N-NO 22 14,0 C 0,0 km/h (0 Bft)
06.08.2015 06:55 16,8 C 20,6 C 85 % 1013,0 hPa 0,0 mm 0,0 km/h (0 Bft) O-NO 67 14,3 C 0,0 km/h (0 Bft)
06.08.2015 07:00 16,9 C 21,7 C 85 % 1013,0 hPa 0,0 mm 0,0 km/h (0 Bft) O 90 14,4 C 0,0 km/h (0 Bft)
06.08.2015 07:05 17,1 C 22,5 C 82 % 1013,0 hPa 0,0 mm 0,0 km/h (0 Bft) N-NO 22 14,0 C 0,0 km/h (0 Bft)
06.08.2015 07:10 17,2 C 23,9 C 81 % 1012,9 hPa 0,0 mm 0,0 km/h (0 Bft) N-NO 22 13,9 C 0,0 km/h (0 Bft)
06.08.2015 07:15 17,5 C 24,8 C 81 % 1012,9 hPa 0,0 mm 0,0 km/h (0 Bft) NO 45 14,2 C 0,0 km/h (0 Bft)
06.08.2015 07:20 18,2 C 25,6 C 80 % 1012,9 hPa 0,0 mm 0,0 km/h (0 Bft) N 360 14,7 C 0,0 km/h (0 Bft)
06.08.2015 07:25 18,6 C 26,3 C 80 % 1012,9 hPa 0,0 mm 0,0 km/h (0 Bft) W-NW 292 15,1 C 0,0 km/h (0 Bft)
06.08.2015 07:30 18,7 C 27,5 C 79 % 1012,5 hPa 0,0 mm 0,0 km/h (0 Bft) NW 315 15,0 C 0,0 km/h (0 Bft)
06.08.2015 07:35 18,8 C 28,4 C 79 % 1012,5 hPa 0,0 mm 0,0 km/h (0 Bft) W-NW 292 15,1 C 0,0 km/h (0 Bft)
06.08.2015 07:40 19,2 C 29,2 C 79 % 1012,5 hPa 0,0 mm 0,0 km/h (0 Bft) W 270 15,5 C 0,0 km/h (0 Bft)
06.08.2015 07:45 19,8 C 29,7 C 79 % 1012,5 hPa 0,0 mm 0,0 km/h (0 Bft) NW 315 16,0 C 0,0 km/h (0 Bft)
06.08.2015 07:50 20,5 C 30,4 C 78 % 1012,5 hPa 0,0 mm 0,0 km/h (0 Bft) W 270 16,5 C 0,0 km/h (0 Bft)
06.08.2015 07:55 21,5 C 30,9 C 78 % 1012,5 hPa 0,0 mm 0,0 km/h (0 Bft) N-NW 337 17,5 C 0,0 km/h (0 Bft)
06.08.2015 08:00 22,2 C 31,8 C 75 % 1012,5 hPa 0,0 mm 0,0 km/h (0 Bft) N-NW 337 17,5 C 0,0 km/h (0 Bft)
06.08.2015 08:05 22,8 C 32,3 C 74 % 1012,5 hPa 0,0 mm 0,0 km/h (0 Bft) W-NW 292 17,9 C 0,0 km/h (0 Bft)
06.08.2015 08:10 23,4 C 32,7 C 71 % 1012,8 hPa 0,0 mm 0,0 km/h (0 Bft) N-NW 337 17,8 C 0,0 km/h (0 Bft)
06.08.2015 08:15 23,6 C 33,2 C 70 % 1012,8 hPa 0,0 mm 0,0 km/h (0 Bft) N-NW 337 17,8 C 0,0 km/h (0 Bft)
06.08.2015 08:20 24,2 C 34,0 C 68 % 1012,8 hPa 0,0 mm 0,0 km/h (0 Bft) N-NW 337 17,9 C 0,0 km/h (0 Bft)
06.08.2015 08:25 24,1 C 34,5 C 68 % 1012,8 hPa 0,0 mm 0,0 km/h (0 Bft) N-NW 337 17,8 C 0,0 km/h (0 Bft)
06.08.2015 08:30 24,3 C 34,8 C 68 % 1012,9 hPa 0,0 mm 0,0 km/h (0 Bft) N-NW 337 18,0 C 0,0 km/h (0 Bft)
06.08.2015 08:35 24,7 C 35,1 C 66 % 1012,9 hPa 0,0 mm 0,0 km/h (0 Bft) N-NW 337 17,9 C 0,0 km/h (0 Bft)
06.08.2015 08:40 24,6 C 35,5 C 66 % 1012,9 hPa 0,0 mm 0,0 km/h (0 Bft) N-NW 337 17,8 C 0,0 km/h (0 Bft)
06.08.2015 08:45 24,6 C 35,9 C 66 % 1012,9 hPa 0,0 mm 0,0 km/h (0 Bft) N-NW 337 17,8 C 0,0 km/h (0 Bft)
06.08.2015 08:50 24,9 C 35,9 C 66 % 1011,9 hPa 0,0 mm 0,0 km/h (0 Bft) N-NO 22 18,1 C 0,0 km/h (0 Bft)
06.08.2015 08:55 25,4 C 35,5 C 65 % 1011,9 hPa 0,0 mm 0,0 km/h (0 Bft) O-NO 67 18,3 C 0,0 km/h (0 Bft)
06.08.2015 09:00 25,6 C 35,6 C 65 % 1011,9 hPa 0,0 mm 0,0 km/h (0 Bft) N-NO 22 18,5 C 0,0 km/h (0 Bft)
06.08.2015 09:05 25,8 C 35,9 C 65 % 1011,9 hPa 0,0 mm 0,0 km/h (0 Bft) NO 45 18,7 C 0,0 km/h (0 Bft)
06.08.2015 09:10 26,3 C 36,2 C 63 % 1013,6 hPa 0,0 mm 0,0 km/h (0 Bft) NO 45 18,7 C 0,0 km/h (0 Bft)
06.08.2015 09:15 26,7 C 36,1 C 62 % 1013,6 hPa 0,0 mm 0,0 km/h (0 Bft) N-NW 337 18,8 C 0,0 km/h (0 Bft)
06.08.2015 09:20 27,0 C 36,5 C 60 % 1013,6 hPa 0,0 mm 0,0 km/h (0 Bft) S-SO 157 18,6 C 0,0 km/h (0 Bft)
06.08.2015 09:25 27,3 C 36,3 C 59 % 1013,6 hPa 0,0 mm 0,3 km/h (0 Bft) O-SO 112 18,6 C 3,1 km/h (1 Bft)
06.08.2015 09:30 27,3 C 35,8 C 58 % 1013,8 hPa 0,0 mm 0,3 km/h (0 Bft) N 360 18,3 C 0,0 km/h (0 Bft)
06.08.2015 09:35 27,5 C 36,1 C 59 % 1013,8 hPa 0,0 mm 0,3 km/h (0 Bft) O-NO 67 18,8 C 0,0 km/h (0 Bft)
06.08.2015 09:40 27,9 C 34,9 C 58 % 1013,8 hPa 0,0 mm 2,6 km/h (1 Bft) O-NO 67 18,9 C 7,0 km/h (2 Bft)
06.08.2015 09:41 27,9 C 34,9 C 58 % 1013,8 hPa 0,0 mm 2,6 km/h (1 Bft) O-NO 67 18,9 C 7,0 km/h (2 Bft)
06.08.2015 09:45 27,9 C 34,9 C 58 % 1013,8 hPa 0,0 mm 2,6 km/h (1 Bft) O-NO 67 18,9 C 7,0 km/h (2 Bft)
06.08.2015 09:50 28,0 C 34,8 C 58 % 1014,1 hPa 0,0 mm 2,6 km/h (1 Bft) O-NO 67 18,9 C 5,4 km/h (1 Bft)
06.08.2015 09:55 27,9 C 34,6 C 57 % 1014,1 hPa 0,0 mm 3,1 km/h (1 Bft) NO 45 18,6 C 3,1 km/h (1 Bft)
06.08.2015 10:00 28,4 C 35,0 C 56 % 1014,1 hPa 0,0 mm 3,4 km/h (1 Bft) NW 315 18,8 C 3,1 km/h (1 Bft)
06.08.2015 10:05 28,6 C 35,5 C 57 % 1014,1 hPa 0,0 mm 2,3 km/h (1 Bft) N 360 19,2 C 5,4 km/h (1 Bft)
06.08.2015 10:10 28,8 C 35,9 C 55 % 1014,3 hPa 0,0 mm 1,3 km/h (1 Bft) O-SO 112 18,8 C 0,0 km/h (0 Bft)
06.08.2015 10:15 28,6 C 35,9 C 54 % 1014,3 hPa 0,0 mm 1,3 km/h (1 Bft) O-SO 112 18,4 C 0,0 km/h (0 Bft)
06.08.2015 10:20 27,9 C 34,7 C 54 % 1014,3 hPa 0,0 mm 0,8 km/h (0 Bft) O-SO 112 17,7 C 0,0 km/h (0 Bft)
06.08.2015 10:25 28,0 C 34,8 C 53 % 1014,3 hPa 0,0 mm 0,5 km/h (0 Bft) O-SO 112 17,5 C 0,0 km/h (0 Bft)
06.08.2015 10:30 27,5 C 34,3 C 54 % 1014,9 hPa 0,0 mm 0,5 km/h (0 Bft) O-SO 112 17,3 C 0,0 km/h (0 Bft)
06.08.2015 10:35 27,6 C 34,0 C 55 % 1014,9 hPa 0,0 mm 0,5 km/h (0 Bft) O-SO 112 17,7 C 0,0 km/h (0 Bft)
06.08.2015 10:40 28,4 C 34,6 C 52 % 1014,9 hPa 0,0 mm 0,8 km/h (0 Bft) SO 135 17,6 C 0,0 km/h (0 Bft)
06.08.2015 10:45 28,7 C 35,0 C 51 % 1014,9 hPa 0,0 mm 2,6 km/h (1 Bft) NO 45 17,5 C 4,4 km/h (1 Bft)
06.08.2015 10:50 28,9 C 35,1 C 51 % 1015,1 hPa 0,0 mm 5,2 km/h (1 Bft) N-NW 337 17,7 C 4,4 km/h (1 Bft)
06.08.2015 10:55 29,0 C 35,3 C 50 % 1015,1 hPa 0,0 mm 4,1 km/h (1 Bft) N-NO 22 17,5 C 5,4 km/h (1 Bft)
06.08.2015 11:00 29,0 C 35,1 C 49 % 1015,1 hPa 0,0 mm 4,1 km/h (1 Bft) N-NO 22 17,2 C 8,0 km/h (2 Bft)
06.08.2015 11:05 28,6 C 34,2 C 49 % 1015,1 hPa 0,0 mm 4,4 km/h (1 Bft) O 90 16,8 C 2,8 km/h (1 Bft)
06.08.2015 11:10 28,4 C 33,8 C 50 % 1015,6 hPa 0,0 mm 2,1 km/h (1 Bft) NO 45 17,0 C 0,0 km/h (0 Bft)
06.08.2015 11:15 28,8 C 34,9 C 49 % 1015,6 hPa 0,0 mm 0,5 km/h (0 Bft) S 180 17,0 C 0,0 km/h (0 Bft)
06.08.2015 11:20 29,0 C 35,5 C 47 % 1015,6 hPa 0,0 mm 1,3 km/h (1 Bft) O-NO 67 16,5 C 0,0 km/h (0 Bft)
06.08.2015 11:25 29,1 C 35,4 C 47 % 1015,6 hPa 0,0 mm 2,6 km/h (1 Bft) N 360 16,6 C 3,6 km/h (1 Bft)
06.08.2015 11:30 29,2 C 35,0 C 47 % 1014,5 hPa 0,0 mm 3,1 km/h (1 Bft) O 90 16,7 C 0,0 km/h (0 Bft)
06.08.2015 11:35 29,1 C 35,0 C 49 % 1014,5 hPa 0,0 mm 2,3 km/h (1 Bft) N-NO 22 17,3 C 4,7 km/h (1 Bft)
06.08.2015 11:40 29,0 C 34,9 C 50 % 1014,5 hPa 0,0 mm 3,1 km/h (1 Bft) O-SO 112 17,5 C 14,2 km/h (3 Bft)
06.08.2015 11:45 29,0 C 34,6 C 48 % 1014,5 hPa 0,0 mm 4,7 km/h (1 Bft) N-NW 337 16,9 C 5,4 km/h (1 Bft)
06.08.2015 11:50 29,1 C 34,3 C 48 % 1015,1 hPa 0,0 mm 6,2 km/h (2 Bft) N-NO 22 16,9 C 8,5 km/h (2 Bft)
06.08.2015 11:55 29,6 C 34,4 C 49 % 1015,1 hPa 0,0 mm 5,4 km/h (1 Bft) O-SO 112 17,7 C 6,7 km/h (2 Bft)
06.08.2015 12:00 29,3 C 34,5 C 47 % 1015,1 hPa 0,0 mm 3,4 km/h (1 Bft) O-NO 67 16,8 C 0,0 km/h (0 Bft)
06.08.2015 12:05 29,3 C 34,6 C 47 % 1015,1 hPa 0,0 mm 2,6 km/h (1 Bft) O-SO 112 16,8 C 0,0 km/h (0 Bft)
06.08.2015 12:10 29,5 C 35,5 C 47 % 1015,9 hPa 0,0 mm 1,0 km/h (0 Bft) O-NO 67 17,0 C 0,0 km/h (0 Bft)
06.08.2015 12:15 30,0 C 35,9 C 46 % 1015,9 hPa 0,0 mm 1,3 km/h (1 Bft) O 90 17,1 C 4,1 km/h (1 Bft)
06.08.2015 12:20 29,8 C 36,1 C 46 % 1015,9 hPa 0,0 mm 1,8 km/h (1 Bft) SW 225 16,9 C 2,6 km/h (1 Bft)
06.08.2015 12:25 29,7 C 36,1 C 46 % 1015,9 hPa 0,0 mm 2,3 km/h (1 Bft) N-NW 337 16,8 C 4,4 km/h (1 Bft)
06.08.2015 12:30 29,8 C 36,1 C 46 % 1015,1 hPa 0,0 mm 2,3 km/h (1 Bft) N-NO 22 16,9 C 3,9 km/h (1 Bft)
06.08.2015 12:35 30,1 C 36,2 C 46 % 1015,1 hPa 0,0 mm 2,6 km/h (1 Bft) O-NO 67 17,2 C 2,6 km/h (1 Bft)
06.08.2015 12:40 30,2 C 36,4 C 45 % 1015,1 hPa 0,0 mm 2,3 km/h (1 Bft) N-NO 22 16,9 C 7,0 km/h (2 Bft)
06.08.2015 12:45 30,3 C 36,5 C 45 % 1015,1 hPa 0,0 mm 1,6 km/h (1 Bft) O-SO 112 17,0 C 0,0 km/h (0 Bft)
06.08.2015 12:50 30,5 C 36,8 C 44 % 1014,7 hPa 0,0 mm 1,6 km/h (1 Bft) SO 135 16,8 C 0,0 km/h (0 Bft)
06.08.2015 12:55 30,5 C 36,7 C 44 % 1014,7 hPa 0,0 mm 1,3 km/h (1 Bft) W-SW 247 16,8 C 3,1 km/h (1 Bft)
06.08.2015 13:00 30,5 C 36,6 C 42 % 1014,7 hPa 0,0 mm 2,8 km/h (1 Bft) NO 45 16,1 C 11,1 km/h (2 Bft)
06.08.2015 13:05 30,4 C 36,2 C 43 % 1014,7 hPa 0,0 mm 3,4 km/h (1 Bft) SO 135 16,4 C 3,4 km/h (1 Bft)
06.08.2015 20:56 22,2 C 23,4 C 57 % 1013,2 hPa 0,0 mm 0,3 km/h (0 Bft) SO 135 13,3 C 0,0 km/h (0 Bft)
06.08.2015 21:01 21,8 C 22,9 C 58 % 1013,2 hPa 0,0 mm 0,0 km/h (0 Bft) O-NO 67 13,2 C 0,0 km/h (0 Bft)
06.08.2015 21:06 21,6 C 22,2 C 59 % 1013,2 hPa 0,0 mm 0,3 km/h (0 Bft) N-NO 22 13,2 C 0,0 km/h (0 Bft)
06.08.2015 21:11 21,4 C 21,8 C 59 % 1013,4 hPa 0,0 mm 0,3 km/h (0 Bft) N-NO 22 13,0 C 0,0 km/h (0 Bft)
06.08.2015 21:12 21,4 C 21,8 C 59 % 1013,4 hPa 0,0 mm 0,3 km/h (0 Bft) N-NO 22 13,0 C 0,0 km/h (0 Bft)
06.08.2015 21:15 21,4 C 21,8 C 59 % 1013,4 hPa 0,0 mm 0,3 km/h (0 Bft) N-NO 22 13,0 C 0,0 km/h (0 Bft)
06.08.2015 21:20 21,6 C 21,5 C 60 % 1013,4 hPa 0,0 mm 0,0 km/h (0 Bft) SO 135 13,5 C 0,0 km/h (0 Bft)
06.08.2015 21:25 21,2 C 21,2 C 61 % 1013,4 hPa 0,0 mm 0,0 km/h (0 Bft) O-NO 67 13,4 C 0,0 km/h (0 Bft)
06.08.2015 21:30 20,7 C 20,9 C 62 % 1013,4 hPa 0,0 mm 0,0 km/h (0 Bft) NO 45 13,2 C 0,0 km/h (0 Bft)
06.08.2015 21:35 20,5 C 20,8 C 62 % 1013,4 hPa 0,0 mm 0,0 km/h (0 Bft) NO 45 13,0 C 0,0 km/h (0 Bft)
06.08.2015 21:40 20,2 C 20,3 C 63 % 1013,4 hPa 0,0 mm 0,0 km/h (0 Bft) N-NO 22 12,9 C 0,0 km/h (0 Bft)
06.08.2015 21:45 19,9 C 20,1 C 63 % 1013,4 hPa 0,0 mm 0,0 km/h (0 Bft) O 90 12,6 C 0,0 km/h (0 Bft)
06.08.2015 21:50 20,0 C 20,1 C 64 % 1013,4 hPa 0,0 mm 0,0 km/h (0 Bft) O-NO 67 13,0 C 0,0 km/h (0 Bft)
06.08.2015 21:55 19,8 C 20,2 C 64 % 1013,4 hPa 0,0 mm 0,0 km/h (0 Bft) S 180 12,8 C 0,0 km/h (0 Bft)
06.08.2015 22:00 19,8 C 20,0 C 63 % 1013,4 hPa 0,0 mm 0,0 km/h (0 Bft) N 360 12,5 C 3,1 km/h (1 Bft)
06.08.2015 22:05 19,6 C 19,8 C 64 % 1013,4 hPa 0,0 mm 0,0 km/h (0 Bft) O-NO 67 12,6 C 0,0 km/h (0 Bft)
06.08.2015 22:10 19,5 C 19,4 C 64 % 1013,4 hPa 0,0 mm 0,0 km/h (0 Bft) S 180 12,5 C 0,0 km/h (0 Bft)
06.08.2015 22:15 19,6 C 19,4 C 63 % 1013,3 hPa 0,0 mm 0,0 km/h (0 Bft) S 180 12,4 C 0,0 km/h (0 Bft)
06.08.2015 22:20 19,0 C 18,9 C 63 % 1013,3 hPa 0,0 mm 0,0 km/h (0 Bft) SO 135 11,8 C 0,0 km/h (0 Bft)
06.08.2015 22:25 19,0 C 18,9 C 63 % 1013,3 hPa 0,0 mm 0,0 km/h (0 Bft) N-NO 22 11,8 C 0,0 km/h (0 Bft)
06.08.2015 22:30 18,9 C 18,8 C 64 % 1013,3 hPa 0,0 mm 0,0 km/h (0 Bft) NO 45 11,9 C 0,0 km/h (0 Bft)
06.08.2015 22:35 18,9 C 18,8 C 64 % 1013,6 hPa 0,0 mm 0,0 km/h (0 Bft) NO 45 11,9 C 0,0 km/h (0 Bft)
06.08.2015 22:40 19,1 C 18,9 C 65 % 1013,6 hPa 0,0 mm 0,0 km/h (0 Bft) S 180 12,4 C 0,0 km/h (0 Bft)
06.08.2015 22:45 19,6 C 19,4 C 65 % 1013,6 hPa 0,0 mm 1,6 km/h (1 Bft) S-SW 202 12,8 C 8,8 km/h (2 Bft)
06.08.2015 22:50 19,4 C 19,7 C 65 % 1013,6 hPa 0,0 mm 3,9 km/h (1 Bft) S 180 12,6 C 4,1 km/h (1 Bft)
06.08.2015 22:55 19,3 C 19,8 C 65 % 1013,4 hPa 0,0 mm 3,9 km/h (1 Bft) SW 225 12,6 C 0,0 km/h (0 Bft)
06.08.2015 23:00 18,8 C 19,3 C 65 % 1013,4 hPa 0,0 mm 0,8 km/h (0 Bft) O-NO 67 12,1 C 0,0 km/h (0 Bft)
06.08.2015 23:05 18,4 C 18,9 C 65 % 1013,4 hPa 0,0 mm 0,0 km/h (0 Bft) O-NO 67 11,7 C 0,0 km/h (0 Bft)
06.08.2015 23:10 18,1 C 18,3 C 66 % 1013,4 hPa 0,0 mm 0,0 km/h (0 Bft) O-NO 67 11,6 C 0,0 km/h (0 Bft)
06.08.2015 23:15 18,0 C 18,1 C 66 % 1013,4 hPa 0,0 mm 0,0 km/h (0 Bft) S-SO 157 11,6 C 0,0 km/h (0 Bft)
06.08.2015 23:20 18,5 C 18,4 C 66 % 1013,4 hPa 0,0 mm 0,0 km/h (0 Bft) S 180 12,0 C 0,0 km/h (0 Bft)
06.08.2015 23:25 18,3 C 18,3 C 66 % 1013,4 hPa 0,0 mm 0,0 km/h (0 Bft) NO 45 11,8 C 0,0 km/h (0 Bft)
06.08.2015 23:30 17,8 C 17,9 C 67 % 1013,4 hPa 0,0 mm 0,0 km/h (0 Bft) N-NO 22 11,6 C 0,0 km/h (0 Bft)
06.08.2015 23:35 17,6 C 17,7 C 68 % 1013,4 hPa 0,0 mm 0,0 km/h (0 Bft) NO 45 11,6 C 0,0 km/h (0 Bft)
06.08.2015 23:40 17,6 C 17,5 C 68 % 1013,4 hPa 0,0 mm 0,0 km/h (0 Bft) N-NO 22 11,6 C 0,0 km/h (0 Bft)
06.08.2015 23:45 17,4 C 17,4 C 68 % 1013,4 hPa 0,0 mm 0,0 km/h (0 Bft) NO 45 11,4 C 0,0 km/h (0 Bft)
06.08.2015 23:50 17,3 C 17,2 C 69 % 1013,4 hPa 0,0 mm 0,0 km/h (0 Bft) NO 45 11,6 C 0,0 km/h (0 Bft)
06.08.2015 23:55 17,3 C 17,2 C 69 % 1013,4 hPa 0,0 mm 0,0 km/h (0 Bft) S-SO 157 11,6 C 0,0 km/h (0 Bft)
_ Min-Zeit 05:50 05:50 13:00 09:05 - 23:55 - - 23:45 23:55
Minimum _ 15,5 C 15,4 C 42 % 1011,9 hPa - 0,0 km/h (0 Bft) - - 11,4 C 0,0 km/h (0 Bft)
_ Max-Zeit 13:00 12:50 06:10 12:25 23:55 03:20 - - 10:05 11:40
Maximum _ 30,5 C 36,8 C 86 % 1015,9 hPa 0,0 mm 7,5 km/h
S (2 Bft)
- - 19,2 C 14,2 km/h
O-SO (3 Bft)
Durchschnitt _ 21,2 C 23,9 C 68 % 1013,4 hPa #0,0 mm 0,8 km/h (0 Bft) O-NO - 14,7 C 1,1 km/h (1 Bft)